JAL435 RJTT-RJOM

Flight info

Callsign JAL435
Flight time 1h 10m
Altitude 32000
Route NINOX Y28 BAMBO Y283 ITUKI
Aircraft B738/M-SDE2E3FGHIRWXY/LB1

Departure

Time 2026-05-06 05:00
Airport Tokyo Haneda International Airport (RJTT)

Arrival

Time 2026-05-06 06:11
Airport Matsuyama Airport (RJOM)
Time Latitude Longitude Altitude Speed Heading
2026-05-06 04:51 35.54520 139.78392 22 ft 3 kts 77°
2026-05-06 04:51 35.54516 139.78370 25 ft 3 kts 90°
2026-05-06 04:52 35.54519 139.78348 26 ft 3 kts 123°
2026-05-06 04:52 35.54532 139.78331 26 ft 3 kts 147°
2026-05-06 04:52 35.54541 139.78324 27 ft 1 kts 150°
2026-05-06 04:52 35.54542 139.78323 27 ft 1 kts 150°
2026-05-06 04:54 35.54542 139.78324 25 ft 1 kts 150°
2026-05-06 04:54 35.54523 139.78337 24 ft 6 kts 150°
2026-05-06 04:54 35.54472 139.78373 23 ft 11 kts 150°
2026-05-06 04:55 35.54394 139.78428 24 ft 15 kts 149°
2026-05-06 04:55 35.54311 139.78486 26 ft 11 kts 156°
2026-05-06 04:55 35.54248 139.78458 22 ft 11 kts 243°
2026-05-06 04:55 35.54275 139.78385 23 ft 10 kts 329°
2026-05-06 04:56 35.54342 139.78338 20 ft 13 kts 329°
2026-05-06 04:56 35.54434 139.78272 22 ft 19 kts 330°
2026-05-06 04:56 35.54553 139.78187 22 ft 20 kts 330°
2026-05-06 04:56 35.54673 139.78103 21 ft 19 kts 330°
2026-05-06 04:57 35.54788 139.78021 21 ft 19 kts 330°
2026-05-06 04:57 35.54900 139.77942 21 ft 18 kts 330°
2026-05-06 04:57 35.55008 139.77865 21 ft 18 kts 330°
2026-05-06 04:57 35.55112 139.77791 22 ft 18 kts 330°
2026-05-06 04:58 35.55231 139.77707 22 ft 20 kts 329°
2026-05-06 04:58 35.55350 139.77622 21 ft 20 kts 330°
2026-05-06 04:58 35.55468 139.77539 22 ft 19 kts 330°
2026-05-06 04:58 35.55555 139.77476 22 ft 12 kts 327°
2026-05-06 04:59 35.55582 139.77417 21 ft 13 kts 272°
2026-05-06 04:59 35.55529 139.77290 21 ft 12 kts 239°
2026-05-06 04:59 35.55456 139.77291 23 ft 12 kts 149°
2026-05-06 04:59 35.55336 139.77377 21 ft 43 kts 150°
2026-05-06 05:00 35.54884 139.77697 21 ft 105 kts 150°
2026-05-06 05:00 35.54116 139.78244 37 ft 150 kts 153°
2026-05-06 05:00 35.53191 139.78939 454 ft 160 kts 151°
2026-05-06 05:00 35.52554 139.79398 850 ft 159 kts 152°
2026-05-06 05:01 35.51573 139.80083 1445 ft 163 kts 153°
2026-05-06 05:01 35.50564 139.80780 1893 ft 175 kts 154°
2026-05-06 05:01 35.49036 139.81840 2169 ft 204 kts 153°
2026-05-06 05:01 35.48174 139.82446 2264 ft 218 kts 152°
2026-05-06 05:02 35.46820 139.83402 2442 ft 238 kts 153°
2026-05-06 05:02 35.45337 139.84452 2838 ft 251 kts 152°
2026-05-06 05:02 35.43815 139.85531 3536 ft 254 kts 152°
2026-05-06 05:02 35.42189 139.86375 4085 ft 255 kts 174°
2026-05-06 05:03 35.40455 139.86131 4708 ft 253 kts 204°
2026-05-06 05:03 35.39026 139.84935 5303 ft 255 kts 227°
2026-05-06 05:03 35.38006 139.83135 5929 ft 258 kts 238°
2026-05-06 05:03 35.37173 139.81174 6552 ft 264 kts 250°
2026-05-06 05:04 35.37036 139.78896 7150 ft 275 kts 277°
2026-05-06 05:04 35.37774 139.76701 7917 ft 285 kts 303°
2026-05-06 05:04 35.39252 139.75035 8729 ft 293 kts 325°
2026-05-06 05:04 35.40945 139.73687 9654 ft 295 kts 324°
2026-05-06 05:05 35.42596 139.72160 10413 ft 301 kts 313°
2026-05-06 05:05 35.43685 139.69918 10640 ft 318 kts 285°
2026-05-06 05:05 35.44255 139.67213 10814 ft 338 kts 281°
2026-05-06 05:05 35.44859 139.64356 11002 ft 360 kts 283°
2026-05-06 05:06 35.45541 139.61304 11437 ft 376 kts 287°
2026-05-06 05:06 35.46544 139.58335 12501 ft 375 kts 287°
2026-05-06 05:06 35.47106 139.55224 13423 ft 369 kts 277°
2026-05-06 05:06 35.47734 139.52167 14156 ft 372 kts 287°
2026-05-06 05:07 35.48564 139.49179 14618 ft 376 kts 281°
2026-05-06 05:07 35.48906 139.46003 15192 ft 376 kts 271°
2026-05-06 05:07 35.48989 139.42790 15872 ft 375 kts 269°
2026-05-06 05:07 35.49025 139.39582 16540 ft 375 kts 269°
2026-05-06 05:08 35.49080 139.36372 17151 ft 376 kts 269°
2026-05-06 05:08 35.49165 139.33195 17739 ft 378 kts 270°
2026-05-06 05:08 35.49275 139.29961 18273 ft 380 kts 270°
2026-05-06 05:08 35.49404 139.26715 18838 ft 381 kts 270°
2026-05-06 05:09 35.49515 139.23469 19398 ft 380 kts 269°
2026-05-06 05:09 35.49765 139.20234 19901 ft 378 kts 272°
2026-05-06 05:09 35.49907 139.17017 20476 ft 375 kts 268°
2026-05-06 05:09 35.49779 139.13815 20829 ft 376 kts 262°
2026-05-06 05:10 35.49534 139.10644 21181 ft 381 kts 263°
2026-05-06 05:10 35.49390 139.07383 21653 ft 383 kts 263°
2026-05-06 05:10 35.49230 139.04114 22143 ft 383 kts 263°
2026-05-06 05:10 35.49071 139.00824 22605 ft 382 kts 262°
2026-05-06 05:11 35.48912 138.97686 23067 ft 382 kts 263°
2026-05-06 05:11 35.48746 138.94413 23430 ft 384 kts 263°
2026-05-06 05:11 35.48594 138.91118 23709 ft 387 kts 263°
2026-05-06 05:11 35.48433 138.87812 23998 ft 388 kts 262°
2026-05-06 05:12 35.48261 138.84528 24340 ft 389 kts 263°
2026-05-06 05:12 35.48089 138.81232 24831 ft 385 kts 263°
2026-05-06 05:12 35.47921 138.77955 25164 ft 385 kts 263°
2026-05-06 05:12 35.47753 138.74656 25374 ft 387 kts 263°
2026-05-06 05:13 35.47585 138.71343 25600 ft 389 kts 263°
2026-05-06 05:13 35.47416 138.68027 25874 ft 390 kts 263°
2026-05-06 05:13 35.47247 138.64740 26118 ft 391 kts 263°
2026-05-06 05:13 35.47074 138.61384 26345 ft 393 kts 263°
2026-05-06 05:14 35.46900 138.58026 26584 ft 395 kts 262°
2026-05-06 05:14 35.46726 138.54683 26794 ft 397 kts 262°
2026-05-06 05:14 35.46545 138.51284 27006 ft 399 kts 262°
2026-05-06 05:14 35.46367 138.47878 27318 ft 398 kts 263°
2026-05-06 05:15 35.46190 138.44485 27642 ft 398 kts 262°
2026-05-06 05:15 35.46012 138.41129 27782 ft 401 kts 262°
2026-05-06 05:15 35.45828 138.37699 27936 ft 402 kts 262°
2026-05-06 05:15 35.45644 138.34259 28118 ft 404 kts 262°
2026-05-06 05:16 35.45466 138.30826 28535 ft 401 kts 263°
2026-05-06 05:16 35.45290 138.27430 28883 ft 397 kts 262°
2026-05-06 05:16 35.45099 138.24073 29238 ft 393 kts 262°
2026-05-06 05:16 35.44915 138.20787 29753 ft 387 kts 262°
2026-05-06 05:17 35.44741 138.17544 30496 ft 377 kts 262°
2026-05-06 05:17 35.44561 138.14358 31008 ft 371 kts 262°
2026-05-06 05:17 35.44375 138.11184 31330 ft 372 kts 261°
2026-05-06 05:17 35.44190 138.08079 31795 ft 367 kts 262°
2026-05-06 05:18 35.44006 138.04972 32176 ft 363 kts 261°
2026-05-06 05:18 35.43649 137.98961 32197 ft 358 kts 261°
2026-05-06 05:19 35.43268 137.92853 32208 ft 365 kts 261°
2026-05-06 05:19 35.42902 137.86601 32213 ft 366 kts 261°
2026-05-06 05:20 35.42525 137.80364 32232 ft 372 kts 261°
2026-05-06 05:20 35.42101 137.73984 32205 ft 380 kts 260°
2026-05-06 05:21 35.41621 137.67505 32200 ft 382 kts 260°
2026-05-06 05:21 35.41141 137.60999 32210 ft 382 kts 261°
2026-05-06 05:22 35.40460 137.54534 32209 ft 380 kts 253°
2026-05-06 05:22 35.39093 137.48311 32195 ft 381 kts 252°
2026-05-06 05:23 35.37707 137.42050 32192 ft 380 kts 252°
2026-05-06 05:23 35.35655 137.32690 32187 ft 378 kts 252°
2026-05-06 05:24 35.34295 137.26489 32183 ft 378 kts 252°
2026-05-06 05:24 35.32927 137.20258 32184 ft 378 kts 252°
2026-05-06 05:25 35.31555 137.14025 32179 ft 378 kts 252°
2026-05-06 05:25 35.30178 137.07801 32185 ft 378 kts 252°
2026-05-06 05:26 35.28784 137.01615 32185 ft 379 kts 252°
2026-05-06 05:26 35.27398 136.95476 32177 ft 379 kts 251°
2026-05-06 05:27 35.25992 136.89248 32173 ft 378 kts 252°
2026-05-06 05:27 35.24612 136.83076 32174 ft 378 kts 252°
2026-05-06 05:28 35.23220 136.76857 32165 ft 378 kts 251°
2026-05-06 05:28 35.21833 136.70679 32178 ft 378 kts 251°
2026-05-06 05:29 35.20435 136.64471 32175 ft 378 kts 251°
2026-05-06 05:29 35.19040 136.58294 32178 ft 378 kts 251°
2026-05-06 05:30 35.17632 136.52076 32169 ft 379 kts 251°
2026-05-06 05:30 35.16229 136.45890 32149 ft 378 kts 251°
2026-05-06 05:31 35.14819 136.39698 32176 ft 379 kts 251°
2026-05-06 05:31 35.13399 136.33468 32173 ft 379 kts 251°
2026-05-06 05:32 35.11987 136.27288 32167 ft 379 kts 251°
2026-05-06 05:32 35.10570 136.21106 32170 ft 376 kts 251°
2026-05-06 05:33 35.09172 136.15011 32162 ft 373 kts 251°
2026-05-06 05:33 35.07768 136.08904 32153 ft 372 kts 251°
2026-05-06 05:34 35.06364 136.02814 32162 ft 370 kts 250°
2026-05-06 05:34 35.05005 135.96918 32161 ft 369 kts 250°
2026-05-06 05:35 35.03611 135.90866 32151 ft 369 kts 250°
2026-05-06 05:35 35.02228 135.84882 32147 ft 368 kts 250°
2026-05-06 05:36 35.00970 135.78844 32148 ft 370 kts 252°
2026-05-06 05:36 34.99854 135.72692 32146 ft 370 kts 253°
2026-05-06 05:37 34.98743 135.66576 32142 ft 371 kts 253°
2026-05-06 05:37 34.97608 135.60411 32149 ft 373 kts 253°
2026-05-06 05:38 34.96461 135.54221 32146 ft 374 kts 252°
2026-05-06 05:38 34.95310 135.48036 32160 ft 376 kts 252°
2026-05-06 05:39 34.94155 135.41839 32154 ft 376 kts 252°
2026-05-06 05:39 34.92992 135.35634 32147 ft 375 kts 252°
2026-05-06 05:40 34.91795 135.29474 32152 ft 374 kts 252°
2026-05-06 05:40 34.90575 135.23290 32143 ft 374 kts 252°
2026-05-06 05:41 34.89360 135.17121 32148 ft 374 kts 252°
2026-05-06 05:41 34.88152 135.10989 32145 ft 374 kts 252°
2026-05-06 05:42 34.86934 135.04823 32147 ft 374 kts 252°
2026-05-06 05:42 34.85736 134.98765 32148 ft 374 kts 251°
2026-05-06 05:43 34.84568 134.92588 32144 ft 374 kts 252°
2026-05-06 05:43 34.83413 134.86415 32138 ft 374 kts 252°
2026-05-06 05:44 34.82258 134.80285 32143 ft 373 kts 252°
2026-05-06 05:44 34.81088 134.74108 32128 ft 374 kts 252°
2026-05-06 05:45 34.79918 134.67959 32123 ft 375 kts 252°
2026-05-06 05:45 34.78740 134.61785 32133 ft 374 kts 252°
2026-05-06 05:46 34.77560 134.55657 32139 ft 373 kts 251°
2026-05-06 05:46 34.76372 134.49507 32106 ft 372 kts 251°
2026-05-06 05:47 34.75194 134.43416 32132 ft 371 kts 252°
2026-05-06 05:47 34.74024 134.37287 32136 ft 371 kts 251°
2026-05-06 05:48 34.73052 134.32195 32131 ft 371 kts 251°
2026-05-06 05:48 34.71689 134.25083 32131 ft 371 kts 251°
2026-05-06 05:49 34.70703 134.19971 32117 ft 370 kts 251°
2026-05-06 05:49 34.69523 134.13904 32125 ft 371 kts 251°
2026-05-06 05:50 34.68926 134.10851 31964 ft 373 kts 251°
2026-05-06 05:50 34.68326 134.07771 31736 ft 374 kts 251°
2026-05-06 05:50 34.67724 134.04692 31496 ft 374 kts 251°
2026-05-06 05:50 34.67108 134.01628 31275 ft 371 kts 249°
2026-05-06 05:51 34.66300 133.98738 31041 ft 365 kts 245°
2026-05-06 05:51 34.65411 133.95881 30807 ft 363 kts 245°
2026-05-06 05:51 34.64512 133.92993 30550 ft 368 kts 246°
2026-05-06 05:51 34.63600 133.90054 30316 ft 375 kts 246°
2026-05-06 05:52 34.62676 133.87066 29589 ft 380 kts 246°
2026-05-06 05:52 34.61763 133.84098 28772 ft 378 kts 246°
2026-05-06 05:52 34.60843 133.81105 27934 ft 379 kts 247°
2026-05-06 05:52 34.59918 133.78097 27012 ft 381 kts 247°
2026-05-06 05:53 34.58984 133.75061 26115 ft 385 kts 248°
2026-05-06 05:53 34.58048 133.72021 25466 ft 381 kts 248°
2026-05-06 05:53 34.57127 133.69032 24804 ft 383 kts 248°
2026-05-06 05:53 34.56177 133.65957 24164 ft 398 kts 248°
2026-05-06 05:54 34.55182 133.62741 23566 ft 409 kts 249°
2026-05-06 05:54 34.54196 133.59596 23340 ft 387 kts 248°
2026-05-06 05:54 34.53236 133.56658 22917 ft 371 kts 248°
2026-05-06 05:54 34.52278 133.53769 22060 ft 367 kts 248°
2026-05-06 05:55 34.51320 133.50884 21060 ft 368 kts 248°
2026-05-06 05:55 34.50365 133.48001 20157 ft 367 kts 249°
2026-05-06 05:55 34.49430 133.45166 19382 ft 364 kts 248°
2026-05-06 05:55 34.48494 133.42327 18716 ft 359 kts 249°
2026-05-06 05:56 34.47577 133.39548 18140 ft 351 kts 249°
2026-05-06 05:56 34.46690 133.36831 17613 ft 342 kts 249°
2026-05-06 05:56 34.45858 133.34197 17132 ft 335 kts 250°
2026-05-06 05:56 34.45034 133.31562 16675 ft 333 kts 250°
2026-05-06 05:57 34.44208 133.28925 16227 ft 338 kts 250°
2026-05-06 05:57 34.43354 133.26202 15768 ft 352 kts 249°
2026-05-06 05:57 34.42472 133.23404 15272 ft 356 kts 249°
2026-05-06 05:57 34.41588 133.20608 14793 ft 354 kts 249°
2026-05-06 05:58 34.40718 133.17860 14311 ft 352 kts 249°
2026-05-06 05:58 34.39841 133.15103 13922 ft 348 kts 249°
2026-05-06 05:58 34.38970 133.12372 13399 ft 346 kts 249°
2026-05-06 05:58 34.38101 133.09649 12928 ft 343 kts 249°
2026-05-06 05:59 34.37251 133.06989 12377 ft 343 kts 249°
2026-05-06 05:59 34.36391 133.04296 11894 ft 341 kts 249°
2026-05-06 05:59 34.35534 133.01616 11409 ft 340 kts 249°
2026-05-06 05:59 34.34706 132.99026 10978 ft 337 kts 249°
2026-05-06 06:00 34.33875 132.96423 10806 ft 327 kts 249°
2026-05-06 06:00 34.33065 132.93895 10654 ft 317 kts 248°
2026-05-06 06:00 34.32288 132.91485 10525 ft 307 kts 247°
2026-05-06 06:00 34.31176 132.89342 10373 ft 298 kts 225°
2026-05-06 06:01 34.29530 132.87886 10255 ft 290 kts 207°
2026-05-06 06:01 34.27644 132.87091 10128 ft 283 kts 197°
2026-05-06 06:01 34.25782 132.86481 9922 ft 278 kts 196°
2026-05-06 06:01 34.23910 132.85876 9604 ft 277 kts 197°
2026-05-06 06:02 34.22047 132.85262 9317 ft 276 kts 197°
2026-05-06 06:02 34.20201 132.84645 9031 ft 274 kts 197°
2026-05-06 06:02 34.18386 132.84034 8743 ft 273 kts 197°
2026-05-06 06:02 34.16557 132.83421 8460 ft 271 kts 197°
2026-05-06 06:03 34.14736 132.82818 8172 ft 270 kts 197°
2026-05-06 06:03 34.12942 132.82227 7897 ft 269 kts 197°
2026-05-06 06:03 34.11144 132.81635 7611 ft 267 kts 197°
2026-05-06 06:03 34.09347 132.81043 7332 ft 266 kts 197°
2026-05-06 06:04 34.07553 132.80481 7047 ft 266 kts 191°
2026-05-06 06:04 34.05712 132.80617 6778 ft 268 kts 169°
2026-05-06 06:04 34.03919 132.81128 6512 ft 266 kts 169°
2026-05-06 06:04 34.02109 132.81625 6210 ft 266 kts 169°
2026-05-06 06:05 34.00296 132.82079 5892 ft 266 kts 174°
2026-05-06 06:05 33.98455 132.82190 5550 ft 266 kts 180°
2026-05-06 06:05 33.96590 132.82204 5200 ft 267 kts 180°
2026-05-06 06:05 33.94759 132.82233 4832 ft 264 kts 179°
2026-05-06 06:06 33.92945 132.82282 4490 ft 257 kts 179°
2026-05-06 06:06 33.91168 132.82337 4150 ft 251 kts 179°
2026-05-06 06:06 33.89487 132.82390 4027 ft 236 kts 179°
2026-05-06 06:06 33.87874 132.82449 3613 ft 231 kts 178°
2026-05-06 06:07 33.86294 132.82505 3259 ft 223 kts 179°
2026-05-06 06:07 33.84776 132.82557 2942 ft 212 kts 179°
2026-05-06 06:07 33.83329 132.82605 2639 ft 202 kts 179°
2026-05-06 06:07 33.81965 132.82632 2381 ft 196 kts 182°
2026-05-06 06:08 33.80652 132.82309 2119 ft 191 kts 207°
2026-05-06 06:08 33.79654 132.81356 1992 ft 178 kts 232°
2026-05-06 06:08 33.79069 132.80050 1635 ft 173 kts 255°
2026-05-06 06:08 33.78886 132.78687 1462 ft 158 kts 270°
2026-05-06 06:09 33.78932 132.77428 1257 ft 144 kts 277°
2026-05-06 06:09 33.79007 132.76185 1087 ft 150 kts 280°
2026-05-06 06:09 33.79267 132.75000 883 ft 144 kts 296°
2026-05-06 06:09 33.79818 132.74032 763 ft 143 kts 314°
2026-05-06 06:10 33.80475 132.73111 549 ft 143 kts 314°
2026-05-06 06:10 33.81114 132.72212 348 ft 140 kts 315°
2026-05-06 06:10 33.81744 132.71326 142 ft 141 kts 314°
2026-05-06 06:10 33.82368 132.70445 26 ft 130 kts 319°
2026-05-06 06:11 33.82902 132.69716 25 ft 97 kts 310°
2026-05-06 06:11 33.83126 132.69401 23 ft 27 kts 311°
2026-05-06 06:11 33.83234 132.69349 22 ft 14 kts 34°
2026-05-06 06:11 33.83293 132.69422 27 ft 11 kts 70°
2026-05-06 06:12 33.83268 132.69508 27 ft 11 kts 130°
2026-05-06 06:12 33.83211 132.69588 25 ft 15 kts 130°
2026-05-06 06:12 33.83133 132.69697 26 ft 19 kts 131°
2026-05-06 06:12 33.83049 132.69814 26 ft 18 kts 130°
2026-05-06 06:13 33.82970 132.69925 25 ft 18 kts 131°
2026-05-06 06:13 33.82891 132.70035 26 ft 17 kts 131°
2026-05-06 06:13 33.82822 132.70132 27 ft 12 kts 126°
2026-05-06 06:13 33.82858 132.70200 24 ft 11 kts 42°
2026-05-06 06:14 33.82906 132.70251 27 ft 5 kts 41°
2026-05-06 06:14 33.82912 132.70257 28 ft 0 kts 41°